{"data":{"norad_id":63125,"epoch":"2026-09-22T20:35:35.514816Z","epoch_age_seconds":107197,"freshness":"FRESH","line1":"1 63125U 25040A   26265.85804994  .00006752  00000+0  30212-3 0  9996","line2":"2 63125  97.3572  18.0361 0001113 125.5638 234.5702 15.21605681 87033","mean_motion":15.21605681,"eccentricity":0.0001113,"inclination_deg":97.3572,"raan_deg":18.0361,"arg_perigee_deg":125.5638,"mean_anomaly_deg":234.5702,"bstar":0.00030212,"rev_number":8703,"period_min":94.636870641389,"perigee_km":500.23121582207,"apogee_km":501.76251102007,"semimajor_km":6879.1338634211,"source":"CELESTRAK","updated_at":"2026-09-23T09:00:21.836286Z"}}